Showing default

FOSSASAT2E22, 66779

Orbit data source: Space-Track

FOSSASAT2E22, 66779 is a Spanish payload satellite in SSO that was launched on Fri, 28 Nov 2025 UTC via an FALCON 9 launch vehicle from the Air Force Western Test Range (AFWTR). Payload-class satellites include a variety of spacecraft equipped with specific instruments for various scientific and technological missions. These include communications satellites like Starlink; space stations such as the ISS; scientific satellites like the Hubble; Earth observation satellites from companies like Planet Labs, Umbra, and HawkEye 360; GPS; miniature CubeSats for education and research; and military/defense satellites.

Loading next visibility...
Identifier
66779, 2025-276DU
Orbit
SSO
Country
Flag of ESES / SPN
Related business
Manufacturer
Fossa Systems
Mission
Operational Commercial Communications
Bus & Motor
CUBESAT 3U, Unknown motor
Mass
4 kg wet, 4 kg dry
Launch date (UTC)
2025-11-28 (6 months ago)
Launch vehicle
FALCON 9
Launch site
Air Force Western Test Range (AFWTR)
Object type
Payload
Rocket body
Debris
Shape & HBR
Box + 2 Pan, 0.1 m
Radar Cross Section
0.035 m²

Expand to show TLE details & history
Last TLE update: 1 day ago

TLE from 1 day ago
0 FOSSASAT2E22
1 66779U 25276DU  26144.13951745  .00005717  00000-0  28230-3 0  9997
2 66779  97.4186 217.8031 0004682 205.4578 154.6426 15.18253863 26755
Epoch: 2026-05-24T03:20Z
TLE epoch observation values (Epoch: 2026-05-24T03:20:54.307Z)
Latitude
-0.00005°
Longitude
-74.16912°
Altitude
517.121 km
Speed
7.603 km/s
True Right ascension
14h 31m 12s
True Declination
0° 00' 00"
Sunlit
Object was in full shadow at epoch
Visualization orbit readout
Latitude
Unknown
Longitude
Unknown
Altitude
Unknown
Speed
Unknown
Apparent Right ascension
Unknown
Apparent Declination
Unknown
Sunlit
N/A
Visualization observer readout
Local Sidereal Time
13:39:10
Azimuth
Unknown
Elevation
Unknown
Doppler factor
Unknown
Orbital elements
Apogee altitude
511.311 km
Perigee altitude
504.862 km
Semi-major axis
6,886.223 km
Eccentricity
0.00047
Inclination
97.4186°
RAAN
217.8031°
Arg. of periapsis
205.4578°
True anomaly
154.66556°
Mean anomaly
154.6426°
Eccentric anomaly
154.65408°
Mean motion
3.79814 °/min
Orbital period
94.78 mins
BSTAR
0.0002823
Loading maneuver chart data...
Computing Atmospheric mass density...
Loading historical data...
Loading historical data...
Loading historical data...
Loading historical data...
Loading historical data...
Loading historical data...
Loading historical data...

Documentation

Showing up to 5 results
|